22-08-2022, 00:00:06,    235,    0.0,   14.2,   0.00,   0.00, 1012.4,   75.6, -999.0
22-08-2022, 00:00:16,    235,    0.0,   14.3,   0.00,   0.00, 1012.3,   75.7, -999.0
22-08-2022, 00:00:26,    235,    0.0,   14.3,   0.00,   0.00, 1012.4,   75.7, -999.0
22-08-2022, 00:00:36,    235,    0.0,   14.3,   0.00,   0.00, 1012.3,   75.7, -999.0
22-08-2022, 00:00:46,    235,    0.0,   14.3,   0.00,   0.00, 1012.4,   75.7, -999.0
22-08-2022, 00:00:56,    235,    0.0,   14.3,   0.00,   0.00, 1012.4,   75.7, -999.0
22-08-2022, 00:01:06,    235,    0.0,   14.3,   0.00,   0.00, 1012.3,   75.6, -999.0
22-08-2022, 00:01:16,    235,    0.0,   14.3,   0.00,   0.00, 1012.3,   75.6, -999.0
22-08-2022, 00:01:26,    235,    0.0,   14.3,   0.00,   0.00, 1012.4,   75.7, -999.0
22-08-2022, 00:01:36,    235,    0.0,   14.3,   0.00,   0.00, 1012.3,   75.7, -999.0
22-08-2022, 00:01:46,    235,    0.0,   14.3,   0.00,   0.00, 1012.3,   75.6, -999.0
22-08-2022, 00:01:56,    235,    0.0,   14.3,   0.00,   0.00, 1012.4,   75.6, -999.0
22-08-2022, 00:02:06,    235,    0.0,   14.3,   0.00,   0.00, 1012.4,   75.5, -999.0
22-08-2022, 00:02:15,    235,    0.0,   14.2,   0.00,   0.00, 1012.4,   75.6, -999.0
22-08-2022, 00:02:25,    235,    0.0,   14.3,   0.00,   0.00, 1012.4,   75.7, -999.0
22-08-2022, 00:02:36,    235,    0.0,   14.3,   0.00,   0.00, 1012.4,   75.7, -999.0
22-08-2022, 00:02:45,    235,    0.0,   14.3,   0.00,   0.00, 1012.4,   75.7, -999.0
22-08-2022, 00:02:55,    235,    0.0,   14.3,   0.00,   0.00, 1012.3,   75.7, -999.0
22-08-2022, 00:03:05,    235,    0.0,   14.3,   0.00,   0.00, 1012.4,   75.8, -999.0
22-08-2022, 00:03:15,    235,    0.0,   14.3,   0.00,   0.00, 1012.4,   75.9, -999.0
22-08-2022, 00:03:25,    235,    0.0,   14.3,   0.00,   0.00, 1012.4,   75.7, -999.0
22-08-2022, 00:03:35,    235,    0.0,   14.3,   0.00,   0.00, 1012.4,   75.8, -999.0
22-08-2022, 00:03:45,    235,    0.0,   14.4,   0.00,   0.00, 1012.4,   75.8, -999.0
22-08-2022, 00:03:55,    235,    0.0,   14.3,   0.00,   0.00, 1012.4,   75.7, -999.0
22-08-2022, 00:04:05,    235,    0.0,   14.3,   0.00,   0.00, 1012.4,   75.6, -999.0
22-08-2022, 00:04:15,    235,    0.0,   14.3,   0.00,   0.00, 1012.4,   75.7, -999.0
22-08-2022, 00:04:25,    235,    0.0,   14.3,   0.00,   0.00, 1012.3,   75.7, -999.0
22-08-2022, 00:04:35,    235,    0.0,   14.3,   0.00,   0.00, 1012.4,   75.7, -999.0
22-08-2022, 00:04:45,    235,    0.0,   14.4,   0.00,   0.00, 1012.4,   75.6, -999.0
22-08-2022, 00:04:55,    235,    0.0,   14.3,   0.00,   0.00, 1012.4,   75.6, -999.0
22-08-2022, 00:05:05,    235,    0.0,   14.4,   0.00,   0.00, 1012.4,   75.7, -999.0
22-08-2022, 00:05:15,    235,    0.0,   14.4,   0.00,   0.00, 1012.4,   75.6, -999.0
22-08-2022, 00:05:24,    236,    0.0,   14.3,   0.00,   0.00, 1012.4,   75.6, -999.0
22-08-2022, 00:05:34,    235,    0.0,   14.4,   0.00,   0.00, 1012.3,   75.7, -999.0
22-08-2022, 00:05:45,    235,    0.0,   14.3,   0.00,   0.00, 1012.3,   75.7, -999.0
22-08-2022, 00:05:54,    235,    0.0,   14.4,   0.00,   0.00, 1012.4,   75.5, -999.0
22-08-2022, 00:06:04,    235,    0.0,   14.4,   0.00,   0.00, 1012.4,   75.5, -999.0
22-08-2022, 00:06:14,    235,    0.0,   14.3,   0.00,   0.00, 1012.3,   75.6, -999.0
22-08-2022, 00:06:24,    235,    0.0,   14.3,   0.00,   0.00, 1012.3,   75.5, -999.0
22-08-2022, 00:06:34,    235,    0.0,   14.3,   0.00,   0.00, 1012.3,   75.6, -999.0
22-08-2022, 00:06:44,    235,    0.0,   14.3,   0.00,   0.00, 1012.3,   75.5, -999.0
22-08-2022, 00:06:54,    235,    0.0,   14.4,   0.00,   0.00, 1012.3,   75.6, -999.0
22-08-2022, 00:07:04,    235,    0.0,   14.3,   0.00,   0.00, 1012.3,   75.6, -999.0
22-08-2022, 00:07:14,    235,    0.0,   14.3,   0.00,   0.00, 1012.3,   75.5, -999.0
22-08-2022, 00:07:24,    235,    0.0,   14.3,   0.00,   0.00, 1012.3,   75.6, -999.0
22-08-2022, 00:07:34,    235,    0.0,   14.4,   0.00,   0.00, 1012.3,   75.7, -999.0
22-08-2022, 00:07:44,    235,    0.0,   14.3,   0.00,   0.00, 1012.3,   75.6, -999.0
22-08-2022, 00:07:54,    235,    0.0,   14.3,   0.00,   0.00, 1012.3,   75.7, -999.0
22-08-2022, 00:08:03,    235,    0.0,   14.3,   0.00,   0.00, 1012.3,   75.6, -999.0
22-08-2022, 00:08:14,    235,    0.0,   14.3,   0.00,   0.00, 1012.3,   75.7, -999.0
22-08-2022, 00:08:24,    235,    0.0,   14.3,   0.00,   0.00, 1012.3,   75.6, -999.0
22-08-2022, 00:08:33,    235,    0.0,   14.2,   0.00,   0.00, 1012.3,   75.5, -999.0
22-08-2022, 00:08:43,    235,    0.0,   14.2,   0.00,   0.00, 1012.3,   75.5, -999.0
22-08-2022, 00:08:54,    235,    0.0,   14.2,   0.00,   0.00, 1012.3,   75.5, -999.0
22-08-2022, 00:09:03,    235,    0.0,   14.3,   0.00,   0.00, 1012.3,   75.6, -999.0
22-08-2022, 00:09:13,    235,    0.0,   14.3,   0.00,   0.00, 1012.2,   75.6, -999.0
22-08-2022, 00:09:23,    235,    0.0,   14.3,   0.00,   0.00, 1012.3,   75.6, -999.0
22-08-2022, 00:09:33,    235,    0.0,   14.3,   0.00,   0.00, 1012.3,   75.6, -999.0
22-08-2022, 00:09:43,    235,    0.0,   14.3,   0.00,   0.00, 1012.3,   75.7, -999.0
22-08-2022, 00:09:53,    235,    0.0,   14.2,   0.00,   0.00, 1012.2,   75.6, -999.0
22-08-2022, 00:10:03,    235,    0.0,   14.3,   0.00,   0.00, 1012.3,   75.8, -999.0
22-08-2022, 00:10:13,    235,    0.0,   14.3,   0.00,   0.00, 1012.2,   75.8, -999.0
22-08-2022, 00:10:23,    236,    0.0,   14.3,   0.00,   0.00, 1012.2,   75.7, -999.0
22-08-2022, 00:10:33,    235,    0.0,   14.4,   0.00,   0.00, 1012.2,   75.7, -999.0
22-08-2022, 00:10:43,    235,    0.0,   14.3,   0.00,   0.00, 1012.3,   75.6, -999.0
22-08-2022, 00:10:53,    235,    0.0,   14.4,   0.00,   0.00, 1012.3,   75.7, -999.0
22-08-2022, 00:11:03,    235,    0.0,   14.2,   0.00,   0.00, 1012.3,   75.8, -999.0
22-08-2022, 00:11:12,    235,    0.0,   14.3,   0.00,   0.00, 1012.3,   75.8, -999.0
22-08-2022, 00:11:23,    235,    0.0,   14.3,   0.00,   0.00, 1012.2,   75.7, -999.0
22-08-2022, 00:11:35,    235,    0.0,   14.3,   0.00,   0.00, 1012.3,   75.7, -999.0
22-08-2022, 00:11:42,    235,    0.0,   14.3,   0.00,   0.00, 1012.2,   75.8, -999.0
22-08-2022, 00:11:52,    235,    0.0,   14.3,   0.00,   0.00, 1012.2,   75.8, -999.0
22-08-2022, 00:12:03,    234,    0.0,   14.4,   0.00,   0.00, 1012.2,   75.8, -999.0
22-08-2022, 00:12:12,    235,    0.0,   14.3,   0.00,   0.00, 1012.2,   75.6, -999.0
22-08-2022, 00:12:22,    235,    0.0,   14.3,   0.00,   0.00, 1012.2,   75.7, -999.0
22-08-2022, 00:12:32,    235,    0.0,   14.4,   0.00,   0.00, 1012.2,   75.5, -999.0
22-08-2022, 00:12:42,    235,    0.0,   14.2,   0.00,   0.00, 1012.2,   75.5, -999.0
22-08-2022, 00:12:52,    235,    0.0,   14.3,   0.00,   0.00, 1012.2,   75.5, -999.0
22-08-2022, 00:13:02,    235,    0.0,   14.3,   0.00,   0.00, 1012.2,   75.6, -999.0
22-08-2022, 00:13:12,    235,    0.0,   14.3,   0.00,   0.00, 1012.2,   75.6, -999.0
22-08-2022, 00:13:22,    235,    0.0,   14.3,   0.00,   0.00, 1012.2,   75.7, -999.0
22-08-2022, 00:13:32,    235,    0.0,   14.3,   0.00,   0.00, 1012.2,   75.7, -999.0
22-08-2022, 00:13:42,    235,    0.0,   14.3,   0.00,   0.00, 1012.2,   75.9, -999.0
22-08-2022, 00:13:52,    235,    0.0,   14.3,   0.00,   0.00, 1012.2,   75.7, -999.0
22-08-2022, 00:14:02,    235,    0.0,   14.3,   0.00,   0.00, 1012.3,   75.8, -999.0
22-08-2022, 00:14:12,    235,    0.0,   14.4,   0.00,   0.00, 1012.2,   75.8, -999.0
22-08-2022, 00:14:21,    235,    0.0,   14.2,   0.00,   0.00, 1012.2,   75.8, -999.0
22-08-2022, 00:14:32,    235,    0.0,   14.2,   0.00,   0.00, 1012.2,   75.8, -999.0
22-08-2022, 00:14:42,    235,    0.0,   14.3,   0.00,   0.00, 1012.2,   75.7, -999.0
22-08-2022, 00:14:51,    235,    0.0,   14.3,   0.00,   0.00, 1012.2,   75.7, -999.0
22-08-2022, 00:15:01,    235,    0.0,   14.3,   0.00,   0.00, 1012.2,   75.7, -999.0
22-08-2022, 00:15:11,    235,    0.0,   14.2,   0.00,   0.00, 1012.2,   75.7, -999.0
22-08-2022, 00:15:21,    235,    0.0,   14.3,   0.00,   0.00, 1012.2,   75.7, -999.0
22-08-2022, 00:15:31,    235,    0.0,   14.2,   0.00,   0.00, 1012.2,   75.9, -999.0
22-08-2022, 00:15:41,    235,    0.0,   14.3,   0.00,   0.00, 1012.2,   75.8, -999.0
22-08-2022, 00:15:51,    235,    0.0,   14.3,   0.00,   0.00, 1012.2,   75.8, -999.0
22-08-2022, 00:16:01,    235,    0.0,   14.2,   0.00,   0.00, 1012.2,   75.7, -999.0
22-08-2022, 00:16:11,    235,    0.0,   14.3,   0.00,   0.00, 1012.2,   75.8, -999.0
22-08-2022, 00:16:21,    235,    0.0,   14.3,   0.00,   0.00, 1012.2,   75.9, -999.0
22-08-2022, 00:16:31,    235,    0.0,   14.2,   0.00,   0.00, 1012.2,   75.9, -999.0
22-08-2022, 00:16:41,    235,    0.0,   14.2,   0.00,   0.00, 1012.2,   75.9, -999.0
22-08-2022, 00:16:51,    235,    0.0,   14.3,   0.00,   0.00, 1012.2,   75.9, -999.0
22-08-2022, 00:17:01,    235,    0.0,   14.3,   0.00,   0.00, 1012.2,   75.8, -999.0
22-08-2022, 00:17:11,    235,    0.0,   14.3,   0.00,   0.00, 1012.2,   75.8, -999.0
22-08-2022, 00:17:21,    235,    0.0,   14.4,   0.00,   0.00, 1012.2,   75.7, -999.0
22-08-2022, 00:17:30,    235,    0.0,   14.4,   0.00,   0.00, 1012.2,   75.7, -999.0
22-08-2022, 00:17:41,    235,    0.0,   14.3,   0.00,   0.00, 1012.2,   75.8, -999.0
22-08-2022, 00:17:50,    235,    0.0,   14.3,   0.00,   0.00, 1012.2,   75.7, -999.0
22-08-2022, 00:18:00,    235,    0.0,   14.3,   0.00,   0.00, 1012.2,   75.8, -999.0
22-08-2022, 00:18:11,    235,    0.0,   14.3,   0.00,   0.00, 1012.2,   75.7, -999.0
22-08-2022, 00:18:20,    234,    0.0,   14.3,   0.00,   0.00, 1012.2,   75.7, -999.0
22-08-2022, 00:18:30,    235,    0.0,   14.3,   0.00,   0.00, 1012.2,   75.7, -999.0
22-08-2022, 00:18:40,    235,    0.0,   14.2,   0.00,   0.00, 1012.2,   75.7, -999.0
22-08-2022, 00:18:50,    235,    0.0,   14.3,   0.00,   0.00, 1012.2,   75.8, -999.0
22-08-2022, 00:19:00,    235,    0.0,   14.3,   0.00,   0.00, 1012.2,   75.8, -999.0
22-08-2022, 00:19:10,    235,    0.0,   14.3,   0.00,   0.00, 1012.1,   75.9, -999.0
22-08-2022, 00:19:20,    235,    0.0,   14.3,   0.00,   0.00, 1012.2,   75.8, -999.0
22-08-2022, 00:19:30,    235,    0.0,   14.2,   0.00,   0.00, 1012.1,   75.8, -999.0
22-08-2022, 00:19:40,    235,    0.0,   14.3,   0.00,   0.00, 1012.2,   75.8, -999.0
22-08-2022, 00:19:50,    235,    0.0,   14.3,   0.00,   0.00, 1012.1,   76.0, -999.0
22-08-2022, 00:20:00,    235,    0.0,   14.2,   0.00,   0.00, 1012.1,   75.9, -999.0
22-08-2022, 00:20:10,    235,    0.0,   14.1,   0.00,   0.00, 1012.1,   76.0, -999.0
22-08-2022, 00:20:20,    235,    0.0,   14.2,   0.00,   0.00, 1012.2,   75.9, -999.0
22-08-2022, 00:20:29,    235,    0.0,   14.1,   0.00,   0.00, 1012.1,   76.0, -999.0
22-08-2022, 00:20:40,    235,    0.0,   14.2,   0.00,   0.00, 1012.1,   76.0, -999.0
22-08-2022, 00:20:50,    235,    0.0,   14.2,   0.00,   0.00, 1012.1,   76.0, -999.0
22-08-2022, 00:20:59,    235,    0.0,   14.2,   0.00,   0.00, 1012.2,   76.0, -999.0
22-08-2022, 00:21:09,    235,    0.0,   14.2,   0.00,   0.00, 1012.1,   76.0, -999.0
22-08-2022, 00:21:20,    235,    0.0,   14.2,   0.00,   0.00, 1012.1,   76.0, -999.0
22-08-2022, 00:21:29,    236,    0.0,   14.2,   0.00,   0.00, 1012.1,   76.0, -999.0
22-08-2022, 00:21:39,    235,    0.0,   14.2,   0.00,   0.00, 1012.2,   76.0, -999.0
22-08-2022, 00:21:49,    235,    0.0,   14.2,   0.00,   0.00, 1012.1,   76.0, -999.0
22-08-2022, 00:21:59,    235,    0.0,   14.2,   0.00,   0.00, 1012.2,   76.0, -999.0
22-08-2022, 00:22:09,    235,    0.0,   14.2,   0.00,   0.00, 1012.1,   75.9, -999.0
22-08-2022, 00:22:19,    235,    0.0,   14.2,   0.00,   0.00, 1012.1,   76.0, -999.0
22-08-2022, 00:22:29,    235,    0.0,   14.2,   0.00,   0.00, 1012.1,   75.9, -999.0
22-08-2022, 00:22:39,    235,    0.0,   14.2,   0.00,   0.00, 1012.1,   75.8, -999.0
22-08-2022, 00:22:49,    235,    0.0,   14.2,   0.00,   0.00, 1012.1,   75.9, -999.0
22-08-2022, 00:22:59,    235,    0.0,   14.2,   0.00,   0.00, 1012.1,   75.8, -999.0
22-08-2022, 00:23:09,    235,    0.0,   14.2,   0.00,   0.00, 1012.1,   75.8, -999.0
22-08-2022, 00:23:19,    235,    0.0,   14.1,   0.00,   0.00, 1012.1,   75.8, -999.0
22-08-2022, 00:23:29,    235,    0.0,   14.2,   0.00,   0.00, 1012.1,   76.0, -999.0
22-08-2022, 00:23:38,    235,    0.0,   14.2,   0.00,   0.00, 1012.1,   75.9, -999.0
22-08-2022, 00:23:49,    235,    0.0,   14.1,   0.00,   0.00, 1012.2,   76.0, -999.0
22-08-2022, 00:23:59,    236,    0.0,   14.1,   0.00,   0.00, 1012.2,   76.0, -999.0
22-08-2022, 00:24:08,    235,    0.0,   14.1,   0.00,   0.00, 1012.2,   76.1, -999.0
22-08-2022, 00:24:18,    235,    0.0,   14.1,   0.00,   0.00, 1012.1,   76.1, -999.0
22-08-2022, 00:24:28,    235,    0.0,   14.1,   0.00,   0.00, 1012.1,   76.1, -999.0
22-08-2022, 00:24:38,    235,    0.0,   14.1,   0.00,   0.00, 1012.1,   76.2, -999.0
22-08-2022, 00:24:48,    235,    0.0,   14.1,   0.00,   0.00, 1012.1,   76.4, -999.0
22-08-2022, 00:24:58,    235,    0.0,   14.0,   0.00,   0.00, 1012.1,   76.3, -999.0
22-08-2022, 00:25:08,    235,    0.0,   14.1,   0.00,   0.00, 1012.1,   76.3, -999.0
22-08-2022, 00:25:18,    235,    0.0,   14.1,   0.00,   0.00, 1012.1,   76.2, -999.0
22-08-2022, 00:25:28,    235,    0.0,   14.2,   0.00,   0.00, 1012.1,   76.3, -999.0
22-08-2022, 00:25:38,    236,    0.0,   14.1,   0.00,   0.00, 1012.1,   76.3, -999.0
22-08-2022, 00:25:48,    235,    0.0,   14.1,   0.00,   0.00, 1012.1,   76.3, -999.0
22-08-2022, 00:25:58,    235,    0.0,   14.1,   0.00,   0.00, 1012.1,   76.3, -999.0
22-08-2022, 00:26:08,    235,    0.0,   14.1,   0.00,   0.00, 1012.1,   76.4, -999.0
22-08-2022, 00:26:18,    235,    0.0,   14.2,   0.00,   0.00, 1012.1,   76.4, -999.0
22-08-2022, 00:26:28,    235,    0.0,   14.1,   0.00,   0.00, 1012.1,   76.3, -999.0
22-08-2022, 00:26:38,    235,    0.0,   14.1,   0.00,   0.00, 1012.1,   76.4, -999.0
22-08-2022, 00:26:47,    235,    0.0,   14.1,   0.00,   0.00, 1012.1,   76.4, -999.0
22-08-2022, 00:26:58,    235,    0.0,   14.2,   0.00,   0.00, 1012.1,   76.4, -999.0
22-08-2022, 00:27:07,    235,    0.0,   14.2,   0.00,   0.00, 1012.1,   76.4, -999.0
22-08-2022, 00:27:17,    235,    0.0,   14.1,   0.00,   0.00, 1012.1,   76.3, -999.0
22-08-2022, 00:27:28,    235,    0.0,   14.2,   0.00,   0.00, 1012.1,   76.4, -999.0
22-08-2022, 00:27:37,    235,    0.0,   14.1,   0.00,   0.00, 1012.1,   76.3, -999.0
22-08-2022, 00:27:47,    235,    0.0,   14.1,   0.00,   0.00, 1012.1,   76.3, -999.0
22-08-2022, 00:27:57,    235,    0.0,   14.1,   0.00,   0.00, 1012.0,   76.3, -999.0
22-08-2022, 00:28:07,    235,    0.0,   14.1,   0.00,   0.00, 1012.0,   76.4, -999.0
22-08-2022, 00:28:17,    235,    0.0,   14.1,   0.00,   0.00, 1012.0,   76.5, -999.0
22-08-2022, 00:28:27,    235,    0.0,   14.1,   0.00,   0.00, 1012.1,   76.4, -999.0
22-08-2022, 00:28:37,    235,    0.0,   14.1,   0.00,   0.00, 1012.0,   76.6, -999.0
22-08-2022, 00:28:47,    235,    0.0,   14.1,   0.00,   0.00, 1012.0,   76.6, -999.0
22-08-2022, 00:28:57,    235,    0.0,   14.1,   0.00,   0.00, 1012.0,   76.6, -999.0
22-08-2022, 00:29:07,    235,    0.0,   14.1,   0.00,   0.00, 1012.1,   76.5, -999.0
22-08-2022, 00:29:17,    235,    0.0,   14.1,   0.00,   0.00, 1012.0,   76.6, -999.0
22-08-2022, 00:29:27,    235,    0.0,   14.1,   0.00,   0.00, 1012.0,   76.6, -999.0
22-08-2022, 00:29:37,    235,    0.0,   14.1,   0.00,   0.00, 1012.0,   76.6, -999.0
22-08-2022, 00:29:46,    235,    0.0,   14.1,   0.00,   0.00, 1012.0,   76.7, -999.0
22-08-2022, 00:29:57,    235,    0.0,   14.1,   0.00,   0.00, 1012.0,   76.7, -999.0
22-08-2022, 00:30:07,    235,    0.0,   14.1,   0.00,   0.00, 1012.0,   76.5, -999.0
22-08-2022, 00:30:16,    235,    0.0,   14.1,   0.00,   0.00, 1012.0,   76.4, -999.0
22-08-2022, 00:30:26,    235,    0.0,   14.0,   0.00,   0.00, 1012.0,   76.4, -999.0
22-08-2022, 00:30:37,    235,    0.0,   14.1,   0.00,   0.00, 1012.0,   76.3, -999.0
22-08-2022, 00:30:46,    235,    0.0,   14.1,   0.00,   0.00, 1012.0,   76.4, -999.0
22-08-2022, 00:30:56,    235,    0.0,   14.1,   0.00,   0.00, 1012.0,   76.5, -999.0
22-08-2022, 00:31:06,    235,    0.0,   14.1,   0.00,   0.00, 1012.0,   76.6, -999.0
22-08-2022, 00:31:16,    235,    0.0,   14.1,   0.00,   0.00, 1012.0,   76.6, -999.0
22-08-2022, 00:31:26,    235,    0.0,   14.1,   0.00,   0.00, 1012.0,   76.7, -999.0
22-08-2022, 00:31:36,    235,    0.0,   14.1,   0.00,   0.00, 1012.0,   76.7, -999.0
22-08-2022, 00:31:46,    235,    0.0,   14.1,   0.00,   0.00, 1012.0,   76.7, -999.0
22-08-2022, 00:31:56,    235,    0.0,   14.1,   0.00,   0.00, 1012.0,   76.7, -999.0
22-08-2022, 00:32:06,    235,    0.0,   14.1,   0.00,   0.00, 1012.0,   76.8, -999.0
22-08-2022, 00:32:16,    235,    0.0,   14.1,   0.00,   0.00, 1012.0,   76.7, -999.0
22-08-2022, 00:32:26,    235,    0.0,   14.1,   0.00,   0.00, 1012.0,   76.7, -999.0
22-08-2022, 00:32:36,    235,    0.0,   14.1,   0.00,   0.00, 1012.0,   76.8, -999.0
22-08-2022, 00:32:46,    235,    0.0,   14.1,   0.00,   0.00, 1012.0,   76.8, -999.0
22-08-2022, 00:32:55,    235,    0.0,   14.1,   0.00,   0.00, 1012.0,   76.8, -999.0
22-08-2022, 00:33:06,    235,    0.0,   14.1,   0.00,   0.00, 1012.0,   76.8, -999.0
22-08-2022, 00:33:16,    235,    0.0,   14.1,   0.00,   0.00, 1012.0,   76.8, -999.0
22-08-2022, 00:33:25,    235,    0.0,   14.1,   0.00,   0.00, 1012.0,   76.8, -999.0
22-08-2022, 00:33:35,    235,    0.0,   14.1,   0.00,   0.00, 1012.0,   76.8, -999.0
22-08-2022, 00:33:45,    235,    0.0,   14.1,   0.00,   0.00, 1012.0,   76.8, -999.0
22-08-2022, 00:33:55,    235,    0.0,   14.1,   0.00,   0.00, 1012.0,   76.8, -999.0
22-08-2022, 00:34:05,    235,    0.0,   14.0,   0.00,   0.00, 1012.0,   76.9, -999.0
22-08-2022, 00:34:15,    235,    0.0,   14.0,   0.00,   0.00, 1012.0,   76.9, -999.0
22-08-2022, 00:34:25,    235,    0.0,   14.0,   0.00,   0.00, 1012.0,   76.9, -999.0
22-08-2022, 00:34:35,    235,    0.0,   14.1,   0.00,   0.00, 1012.0,   76.9, -999.0
22-08-2022, 00:34:45,    235,    0.0,   14.1,   0.00,   0.00, 1012.0,   76.9, -999.0
22-08-2022, 00:34:55,    235,    0.0,   14.1,   0.00,   0.00, 1012.0,   76.9, -999.0
22-08-2022, 00:35:05,    235,    0.0,   14.0,   0.00,   0.00, 1012.0,   76.9, -999.0
22-08-2022, 00:35:15,    235,    0.0,   14.0,   0.00,   0.00, 1012.0,   76.8, -999.0
22-08-2022, 00:35:25,    235,    0.0,   14.0,   0.00,   0.00, 1012.0,   76.8, -999.0
22-08-2022, 00:35:35,    235,    0.0,   14.1,   0.00,   0.00, 1012.0,   76.7, -999.0
22-08-2022, 00:35:45,    235,    0.0,   14.1,   0.00,   0.00, 1012.0,   76.7, -999.0
22-08-2022, 00:35:55,    235,    0.0,   14.0,   0.00,   0.00, 1012.0,   76.7, -999.0
22-08-2022, 00:36:04,    235,    0.0,   14.0,   0.00,   0.00, 1012.0,   76.9, -999.0
22-08-2022, 00:36:15,    235,    0.0,   14.0,   0.00,   0.00, 1012.0,   76.9, -999.0
22-08-2022, 00:36:24,    235,    0.0,   14.0,   0.00,   0.00, 1012.0,   76.9, -999.0
22-08-2022, 00:36:34,    235,    0.0,   14.0,   0.00,   0.00, 1012.0,   77.0, -999.0
22-08-2022, 00:36:45,    235,    0.0,   14.0,   0.00,   0.00, 1012.0,   77.0, -999.0
22-08-2022, 00:36:54,    235,    0.0,   14.0,   0.00,   0.00, 1012.0,   77.0, -999.0
22-08-2022, 00:37:04,    235,    0.0,   14.0,   0.00,   0.00, 1012.0,   77.0, -999.0
22-08-2022, 00:37:14,    235,    0.0,   14.0,   0.00,   0.00, 1012.0,   77.0, -999.0
22-08-2022, 00:37:24,    235,    0.0,   14.0,   0.00,   0.00, 1012.0,   76.9, -999.0
22-08-2022, 00:37:34,    235,    0.0,   13.9,   0.00,   0.00, 1012.0,   77.0, -999.0
22-08-2022, 00:37:44,    235,    0.0,   14.0,   0.00,   0.00, 1012.0,   77.0, -999.0
22-08-2022, 00:37:54,    235,    0.0,   14.1,   0.00,   0.00, 1012.0,   77.0, -999.0
22-08-2022, 00:38:04,    235,    0.0,   14.1,   0.00,   0.00, 1012.0,   77.0, -999.0
22-08-2022, 00:38:14,    235,    0.0,   14.1,   0.00,   0.00, 1012.0,   77.1, -999.0
22-08-2022, 00:38:24,    235,    0.0,   14.1,   0.00,   0.00, 1012.0,   77.0, -999.0
22-08-2022, 00:38:34,    235,    0.0,   14.1,   0.00,   0.00, 1012.0,   77.0, -999.0
22-08-2022, 00:38:44,    235,    0.0,   14.1,   0.00,   0.00, 1012.0,   77.0, -999.0
22-08-2022, 00:38:54,    235,    0.0,   14.0,   0.00,   0.00, 1012.0,   76.9, -999.0
22-08-2022, 00:39:04,    235,    0.0,   14.0,   0.00,   0.00, 1012.0,   77.0, -999.0
22-08-2022, 00:39:13,    235,    0.0,   14.1,   0.00,   0.00, 1012.0,   77.0, -999.0
22-08-2022, 00:39:24,    235,    0.0,   14.1,   0.00,   0.00, 1011.9,   77.0, -999.0
22-08-2022, 00:39:33,    235,    0.0,   14.0,   0.00,   0.00, 1011.9,   77.0, -999.0
22-08-2022, 00:39:43,    235,    0.0,   14.0,   0.00,   0.00, 1011.9,   77.0, -999.0
22-08-2022, 00:39:54,    235,    0.0,   14.0,   0.00,   0.00, 1011.9,   77.1, -999.0
22-08-2022, 00:40:03,    235,    0.0,   14.0,   0.00,   0.00, 1012.0,   77.1, -999.0
22-08-2022, 00:40:13,    235,    0.0,   14.1,   0.00,   0.00, 1011.9,   77.1, -999.0
22-08-2022, 00:40:23,    235,    0.0,   14.0,   0.00,   0.00, 1012.0,   77.1, -999.0
22-08-2022, 00:40:33,    236,    0.0,   14.0,   0.00,   0.00, 1012.0,   77.1, -999.0
22-08-2022, 00:40:43,    235,    0.0,   14.0,   0.00,   0.00, 1012.0,   77.2, -999.0
22-08-2022, 00:40:53,    235,    0.0,   14.0,   0.00,   0.00, 1012.0,   77.1, -999.0
22-08-2022, 00:41:03,    235,    0.0,   14.0,   0.00,   0.00, 1011.9,   77.1, -999.0
22-08-2022, 00:41:13,    235,    0.0,   14.0,   0.00,   0.00, 1011.9,   77.2, -999.0
22-08-2022, 00:41:23,    235,    0.0,   14.0,   0.00,   0.00, 1012.0,   77.3, -999.0
22-08-2022, 00:41:33,    235,    0.0,   14.0,   0.00,   0.00, 1012.0,   77.4, -999.0
22-08-2022, 00:41:43,    235,    0.0,   14.1,   0.00,   0.00, 1011.9,   77.3, -999.0
22-08-2022, 00:41:53,    235,    0.0,   14.0,   0.00,   0.00, 1012.0,   77.3, -999.0
22-08-2022, 00:42:03,    235,    0.0,   14.0,   0.00,   0.00, 1012.0,   77.2, -999.0
22-08-2022, 00:42:12,    235,    0.0,   14.0,   0.00,   0.00, 1012.0,   77.3, -999.0
22-08-2022, 00:42:23,    235,    0.0,   14.0,   0.00,   0.00, 1012.0,   77.2, -999.0
22-08-2022, 00:42:33,    235,    0.0,   13.9,   0.00,   0.00, 1012.0,   77.2, -999.0
22-08-2022, 00:42:42,    235,    0.0,   14.0,   0.00,   0.00, 1012.0,   77.2, -999.0
22-08-2022, 00:42:52,    235,    0.0,   13.9,   0.00,   0.00, 1012.0,   77.2, -999.0
22-08-2022, 00:43:03,    235,    0.0,   13.8,   0.00,   0.00, 1012.0,   77.1, -999.0
22-08-2022, 00:43:12,    236,    0.0,   13.9,   0.00,   0.00, 1012.0,   77.1, -999.0
22-08-2022, 00:43:22,    235,    0.0,   13.9,   0.00,   0.00, 1012.0,   77.2, -999.0
22-08-2022, 00:43:32,    236,    0.0,   13.9,   0.00,   0.00, 1012.0,   77.1, -999.0
22-08-2022, 00:43:42,    235,    0.0,   13.9,   0.00,   0.00, 1012.0,   77.1, -999.0
22-08-2022, 00:43:52,    235,    0.0,   13.9,   0.00,   0.00, 1012.0,   77.2, -999.0
22-08-2022, 00:44:02,    235,    0.0,   13.9,   0.00,   0.00, 1012.0,   77.2, -999.0
22-08-2022, 00:44:12,    235,    0.0,   13.9,   0.00,   0.00, 1012.0,   77.1, -999.0
22-08-2022, 00:44:22,    235,    0.0,   13.9,   0.00,   0.00, 1012.0,   77.2, -999.0
22-08-2022, 00:44:32,    235,    0.0,   13.9,   0.00,   0.00, 1012.0,   77.4, -999.0
22-08-2022, 00:44:42,    235,    0.0,   13.8,   0.00,   0.00, 1012.0,   77.4, -999.0
22-08-2022, 00:44:52,    235,    0.0,   13.9,   0.00,   0.00, 1012.0,   77.4, -999.0
22-08-2022, 00:45:02,    235,    0.0,   13.8,   0.00,   0.00, 1012.0,   77.5, -999.0
22-08-2022, 00:45:12,    235,    0.0,   13.8,   0.00,   0.00, 1012.0,   77.6, -999.0
22-08-2022, 00:45:21,    235,    0.0,   13.9,   0.00,   0.00, 1012.0,   77.6, -999.0
22-08-2022, 00:45:32,    235,    0.0,   13.8,   0.00,   0.00, 1011.9,   77.6, -999.0
22-08-2022, 00:45:42,    235,    0.0,   13.8,   0.00,   0.00, 1012.0,   77.7, -999.0
22-08-2022, 00:45:51,    235,    0.0,   13.8,   0.00,   0.00, 1012.0,   77.7, -999.0
22-08-2022, 00:46:01,    235,    0.0,   13.9,   0.00,   0.00, 1012.0,   77.6, -999.0
22-08-2022, 00:46:11,    235,    0.0,   13.9,   0.00,   0.00, 1012.0,   77.7, -999.0
22-08-2022, 00:46:21,    235,    0.0,   13.9,   0.00,   0.00, 1012.0,   77.6, -999.0
22-08-2022, 00:46:31,    235,    0.0,   13.9,   0.00,   0.00, 1012.0,   77.6, -999.0
22-08-2022, 00:46:41,    235,    0.0,   13.8,   0.00,   0.00, 1012.1,   77.6, -999.0